Location: *
(37.5724°S, 58.0067°E)
Time: 01:01:22
(UTC+00:00)

Cosmos 1980 - Pass Details

Date: 27 January 2021
Orbit: 840 x 846 km, 71.0° (Epoch: 06 March)

Event Time Altitude Azimuth Distance (km) Brightness Sun altitude
Rises 20:39:33 0° 189° (S) 3,441 7.9 -34.0°
Reaches altitude 10° 20:42:47 10° 171° (S) 2,498 7.0 -34.0°
Maximum altitude 20:46:48 19° 126° (SE) 1,922 5.9 -33.9°
Enters shadow 20:48:57 16° 99° (E) 2,098 5.9 -33.8°
